Weather History for Glenwood, MN

Change the Weather History Date:

Thursday, October 13, 2011

  Actual Average Record
Temperature  
Mean Temperature 54 °F -  
Max Temperature 59 °F 58 °F 80 °F (1956)
Min Temperature 48 °F 37 °F 5 °F (1999)
Degree Days  
Heating Degree Days 12    
Growing Degree Days 4 (Base 50)    
Moisture  
Dew Point 42 °F    
Average Humidity 72    
Maximum Humidity 93    
Minimum Humidity 42    
Precipitation  
Precipitation 0.00 in - - ()
Sea Level Pressure  
Sea Level Pressure 29.70 in    
Wind  
Wind Speed 12 mph (WNW)    
Max Wind Speed 22 mph    
Max Gust Speed 29 mph    
Visibility 10 miles    
Events      
Averages and records for this station are not official NWS values.
T = Trace of Precipitation, MM = Missing Value Source: NWS Daily Summary

Daily Weather History Graph

Daily Weather History Graph

Search for Another Location

Airport:

Trip Planner

Search our weather history database for the weather conditions in past years. The results will help you decide how hot, cold, wet, or windy it might be!

Date:

Astronomy

Oct. 13, 2011 Rise Set
Actual Time 7:34 AM CDT 6:39 PM CDT
Civil Twilight 7:04 AM CDT 7:09 PM CDT
Nautical Twilight 6:30 AM CDT 7:43 PM CDT
Astronomical Twilight 5:56 AM CDT 8:18 PM CDT
Moon 7:06 PM CDT (10/13) 9:15 AM CDT (10/13)
Length of Visible Light 12h 04m
Length of Day
11h 04m
Full, 98% of the Moon is Illuminated
Oct 13
Full
Oct 19
Last Quarter
Oct 26
New
Nov 2
First Quarter
Nov 10
Full

Hourly Weather History & Observations

Time (CDT) Temp. Windchill Dew Point Humidity Pressure Visibility Wind Dir Wind Speed Gust Speed Precip Events Conditions
12:13 AM 53.6 °F - 46.4 °F 77% 29.70 in 10.0 mi West 8.1 mph - N/A   Clear
12:33 AM 51.8 °F - 46.4 °F 82% 29.69 in 10.0 mi West 9.2 mph - N/A   Clear
12:54 AM 51.8 °F - 46.4 °F 82% 29.69 in 10.0 mi WNW 9.2 mph - N/A   Clear
1:14 AM 51.8 °F - 46.4 °F 82% 29.70 in 10.0 mi West 8.1 mph - N/A   Clear
1:33 AM 50.0 °F - 44.6 °F 82% 29.70 in 10.0 mi West 5.8 mph - N/A   Clear
1:53 AM 50.0 °F - 44.6 °F 82% 29.70 in 10.0 mi West 5.8 mph - N/A   Clear
2:13 AM 48.2 °F - 44.6 °F 87% 29.70 in 10.0 mi West 6.9 mph - N/A   Clear
2:33 AM 48.2 °F - 44.6 °F 87% 29.70 in 10.0 mi West 8.1 mph - N/A   Clear
2:53 AM 48.2 °F - 44.6 °F 87% 29.69 in 10.0 mi West 8.1 mph - N/A   Clear
3:13 AM 48.2 °F - 44.6 °F 87% 29.69 in 10.0 mi West 5.8 mph - N/A   Clear
3:33 AM 48.2 °F - 44.6 °F 87% 29.69 in 10.0 mi West 8.1 mph - N/A   Clear
3:54 AM 48.2 °F - 44.6 °F 87% 29.69 in 10.0 mi WNW 10.4 mph - N/A   Clear
4:13 AM 48.2 °F - 44.6 °F 87% 29.69 in 10.0 mi WNW 10.4 mph - N/A   Clear
4:33 AM 48.2 °F - 44.6 °F 87% 29.69 in 10.0 mi WNW 13.8 mph - N/A   Clear
4:53 AM 48.2 °F - 44.6 °F 87% 29.69 in 10.0 mi WNW 13.8 mph - N/A   Clear
5:14 AM 48.2 °F - 44.6 °F 87% 29.69 in 10.0 mi WNW 12.7 mph - N/A   Clear
5:33 AM 48.2 °F - 44.6 °F 87% 29.70 in 7.0 mi WNW 12.7 mph - N/A   Mostly Cloudy
5:53 AM 48.2 °F - 46.4 °F 93% 29.70 in 5.0 mi WNW 11.5 mph - N/A   Overcast
6:13 AM 48.2 °F - 46.4 °F 93% 29.71 in 7.0 mi WNW 15.0 mph 18.4 mph N/A   Overcast
6:33 AM 48.2 °F - 44.6 °F 87% 29.71 in 7.0 mi NW 16.1 mph 23.0 mph N/A   Overcast
6:53 AM 48.2 °F - 44.6 °F 87% 29.71 in 7.0 mi WNW 11.5 mph - N/A   Overcast
7:13 AM 48.2 °F - 44.6 °F 87% 29.71 in 10.0 mi WNW 12.7 mph - N/A   Overcast
7:33 AM 48.2 °F - 44.6 °F 87% 29.71 in 10.0 mi WNW 13.8 mph 21.9 mph N/A   Overcast
7:53 AM 48.2 °F - 44.6 °F 87% 29.71 in 10.0 mi WNW 18.4 mph - N/A   Overcast
8:13 AM 48.2 °F - 42.8 °F 82% 29.72 in 10.0 mi WNW 18.4 mph 21.9 mph N/A   Overcast
8:33 AM 48.2 °F - 42.8 °F 82% 29.72 in 10.0 mi WNW 16.1 mph 20.7 mph N/A   Overcast
8:53 AM 48.2 °F - 42.8 °F 82% 29.72 in 10.0 mi WNW 15.0 mph 28.8 mph N/A   Overcast
9:13 AM 48.2 °F - 42.8 °F 82% 29.72 in 10.0 mi WNW 13.8 mph 19.6 mph N/A   Overcast
9:33 AM 48.2 °F - 42.8 °F 82% 29.72 in 10.0 mi WNW 16.1 mph 24.2 mph N/A   Overcast
9:53 AM 50.0 °F - 42.8 °F 76% 29.71 in 10.0 mi West 16.1 mph - N/A   Overcast
10:13 AM 51.8 °F - 44.6 °F 76% 29.71 in 10.0 mi WNW 16.1 mph - N/A   Mostly Cloudy
10:33 AM 50.0 °F - 44.6 °F 82% 29.72 in 10.0 mi WNW 18.4 mph 23.0 mph N/A   Overcast
10:53 AM 51.8 °F - 42.8 °F 71% 29.71 in 10.0 mi WNW 19.6 mph 25.3 mph N/A   Overcast
11:14 AM 51.8 °F - 42.8 °F 71% 29.71 in 10.0 mi WNW 20.7 mph 26.5 mph N/A   Overcast
11:33 AM 53.6 °F - 42.8 °F 67% 29.71 in 10.0 mi WNW 19.6 mph 26.5 mph N/A   Overcast
11:53 AM 53.6 °F - 42.8 °F 67% 29.71 in 10.0 mi WNW 20.7 mph 25.3 mph N/A   Mostly Cloudy
12:14 PM 55.4 °F - 42.8 °F 63% 29.70 in 10.0 mi WNW 20.7 mph 26.5 mph N/A   Scattered Clouds
12:33 PM 55.4 °F - 42.8 °F 63% 29.69 in 10.0 mi NW 17.3 mph 23.0 mph N/A   Scattered Clouds
12:53 PM 55.4 °F - 39.2 °F 54% 29.69 in 10.0 mi WNW 21.9 mph 27.6 mph N/A   Clear
1:13 PM 57.2 °F - 39.2 °F 51% 29.69 in 10.0 mi WNW 18.4 mph 25.3 mph N/A   Clear
1:33 PM 57.2 °F - 39.2 °F 51% 29.69 in 10.0 mi WNW 18.4 mph 23.0 mph N/A   Clear
2:14 PM 57.2 °F - 37.4 °F 48% 29.68 in 10.0 mi NW 16.1 mph 24.2 mph N/A   Clear
2:33 PM 59.0 °F - 37.4 °F 45% 29.68 in 10.0 mi WNW 18.4 mph 24.2 mph N/A   Clear
3:13 PM 59.0 °F - 37.4 °F 45% 29.68 in 10.0 mi WNW 16.1 mph 25.3 mph N/A   Clear
3:33 PM 59.0 °F - 35.6 °F 42% 29.68 in 10.0 mi NW 17.3 mph 23.0 mph N/A   Clear
3:53 PM 59.0 °F - 35.6 °F 42% 29.67 in 10.0 mi NW 16.1 mph 23.0 mph N/A   Clear
4:14 PM 59.0 °F - 37.4 °F 45% 29.67 in 10.0 mi NW 15.0 mph 20.7 mph N/A   Clear
4:33 PM 59.0 °F - 35.6 °F 42% 29.67 in 10.0 mi WNW 13.8 mph 18.4 mph N/A   Clear
4:53 PM 57.2 °F - 35.6 °F 44% 29.67 in 10.0 mi WNW 15.0 mph - N/A   Scattered Clouds
5:14 PM 55.4 °F - 37.4 °F 51% 29.67 in 10.0 mi West 11.5 mph 19.6 mph N/A   Scattered Clouds
5:33 PM 55.4 °F - 39.2 °F 54% 29.67 in 10.0 mi West 11.5 mph - N/A   Clear
5:53 PM 55.4 °F - 39.2 °F 54% 29.68 in 10.0 mi West 10.4 mph - N/A   Clear
6:13 PM 53.6 °F - 39.2 °F 58% 29.68 in 10.0 mi West 9.2 mph - N/A   Mostly Cloudy
6:33 PM 53.6 °F - 39.2 °F 58% 29.68 in 10.0 mi WNW 9.2 mph - N/A   Overcast
6:53 PM 53.6 °F - 39.2 °F 58% 29.68 in 10.0 mi West 8.1 mph - N/A   Overcast
7:14 PM 51.8 °F - 39.2 °F 62% 29.68 in 10.0 mi West 5.8 mph - N/A   Scattered Clouds
7:33 PM 51.8 °F - 39.2 °F 62% 29.68 in 10.0 mi West 5.8 mph - N/A   Scattered Clouds
7:53 PM 51.8 °F - 39.2 °F 62% 29.69 in 10.0 mi West 8.1 mph - N/A   Mostly Cloudy
8:14 PM 50.0 °F - 41.0 °F 71% 29.70 in 10.0 mi NW 12.7 mph - N/A   Overcast
8:33 PM 50.0 °F - 41.0 °F 71% 29.70 in 10.0 mi NW 9.2 mph - N/A   Overcast
8:53 PM 48.2 °F - 42.8 °F 82% 29.69 in 10.0 mi NW 5.8 mph - N/A   Overcast
9:14 PM 48.2 °F - 42.8 °F 82% 29.69 in 10.0 mi West 6.9 mph - N/A   Mostly Cloudy
9:33 PM 48.2 °F - 42.8 °F 82% 29.69 in 10.0 mi West 11.5 mph - N/A   Overcast
9:53 PM 48.2 °F - 42.8 °F 82% 29.69 in 10.0 mi West 10.4 mph - N/A   Mostly Cloudy
10:13 PM 48.2 °F - 42.8 °F 82% 29.69 in 10.0 mi West 12.7 mph - N/A   Scattered Clouds
10:33 PM 48.2 °F - 42.8 °F 82% 29.69 in 10.0 mi WNW 9.2 mph - N/A   Scattered Clouds
10:54 PM 48.2 °F - 42.8 °F 82% 29.68 in 10.0 mi West 12.7 mph - N/A   Mostly Cloudy
11:14 PM 46.4 °F 40.7 °F 42.8 °F 87% 29.69 in 10.0 mi West 12.7 mph - N/A   Scattered Clouds
11:33 PM 46.4 °F 40.4 °F 42.8 °F 87% 29.69 in 10.0 mi West 13.8 mph 18.4 mph N/A   Clear
11:53 PM 46.4 °F 40.7 °F 42.8 °F 87% 29.69 in 10.0 mi WNW 12.7 mph 17.3 mph N/A   Clear